sat.trackr.live / text

‹ back to catalog

STARLINK-34845

NORAD 65289 · 2025-184S

PAYLOAD ACTIVE UNKNOWN

§ Identity

Operator
Country
US
Launch date
2025-08-22
Launch site
AFWTR
Launch vehicle
Mass (kg)
RCS (m²)

Purposes: comms

External: N2YO · Heavens-Above · Gunter

§ Orbital elements

Epoch: 2026-05-25T02:48:06.014592Z

Period
95.64 min
Inclination
97.4496°
Eccentricity
0.0002657
Mean motion
15.05657530 rev/d
Perigee alt
547.6 km
Apogee alt
551.3 km
Semi-major
6,927.6 km
B*
2.4932e-4
RAAN
197.6694°
Arg perigee
123.9262°
Mean anomaly
236.2218°
Rev number
4,280

§ Raw data

STARLINK-348451 65289U 25184S   26145.11673628  .00003541  00000+0  24932-3 0  99972 65289  97.4496 197.6694 0002657 123.9262 236.2218 15.05657530 42803

JSON: /api/v1/satellites/65289 · /tle

For live sub-satellite position, see the globe view (requires WebGL).

§ Visibility from observer

Set your observer location to see the next 7 days of passes ≥ 10°. The values pass through the URL so the page stays shareable.

No JS? Fill the form by hand. The geolocation button needs JavaScript.